This is the latest recevied weather packets stored in our database for station/object OH6HPS. If no packets are shown the sender has not sent any weather packets the latest 10 day(s).
| Time | Temp. | Humidity | Pressure | Rain* | Wind** | Luminosity | Snow |
|---|---|---|---|---|---|---|---|
| 1777249413 | 0° C | 79% | 1012.7 hPa | 0 mm | - | 0 W/m² | - |
| 1777248810 | 0° C | 79% | 1012.6 hPa | 0 mm | - | 0 W/m² | - |
| 1777248211 | 0.56° C | 79% | 1012.6 hPa | 0 mm | - | 0 W/m² | - |
| 1777247610 | 0.56° C | 79% | 1012.4 hPa | 0 mm | - | 0 W/m² | - |
| 1777247009 | 0.56° C | 79% | 1012.4 hPa | 0 mm | - | 0 W/m² | - |
| 1777246410 | 0.56° C | 80% | 1012.3 hPa | 0 mm | - | 0 W/m² | - |
| 1777245809 | 0.56° C | 80% | 1012.3 hPa | 0 mm | - | 0 W/m² | - |
| 1777245209 | 0.56° C | 80% | 1012.2 hPa | 0 mm | - | 0 W/m² | - |
| 1777244608 | 0.56° C | 79% | 1012.1 hPa | 0 mm | - | 0 W/m² | - |
| 1777244008 | 1.11° C | 79% | 1012.1 hPa | 0 mm | - | 0 W/m² | - |
| 1777243407 | 1.11° C | 78% | 1012 hPa | 0 mm | - | 0 W/m² | - |
| 1777242808 | 1.11° C | 78% | 1012 hPa | 0 mm | - | 0 W/m² | - |
| 1777242208 | 1.11° C | 77% | 1011.9 hPa | 0 mm | - | 0 W/m² | - |
| 1777241607 | 1.67° C | 77% | 1011.8 hPa | 0 mm | - | 0 W/m² | - |
| 1777241008 | 1.67° C | 76% | 1011.7 hPa | 0 mm | - | 0 W/m² | - |
| 1777240409 | 1.67° C | 75% | 1011.8 hPa | 0 mm | - | 0 W/m² | - |
| 1777239807 | 1.67° C | 74% | 1011.6 hPa | 0 mm | - | 0 W/m² | - |
| 1777239207 | 2.22° C | 74% | 1011.6 hPa | 0 mm | - | 0 W/m² | - |
| 1777238607 | 2.22° C | 73% | 1011.4 hPa | 0 mm | - | 0 W/m² | - |
| 1777238007 | 2.22° C | 72% | 1011.3 hPa | 0 mm | - | 0 W/m² | - |
| 1777237407 | 2.22° C | 71% | 1011.3 hPa | 0 mm | - | 0 W/m² | - |
| 1777236805 | 2.78° C | 71% | 1011.2 hPa | 0 mm | - | 0 W/m² | - |
| 1777236205 | 2.78° C | 69% | 1011 hPa | 0 mm | - | 0 W/m² | - |
| 1777235606 | 2.78° C | 69% | 1010.9 hPa | 0 mm | - | 0 W/m² | - |
| 1777235006 | 2.78° C | 67% | 1010.9 hPa | 0 mm | - | 0 W/m² | - |
* Rain latest hour (hover to see other rain measurements)
** Current wind speed in m/s (hover to see current wind gust speed)